| time (UTC) | temp F | wind direction | speed MPH | gust MPH | rain 1hr in | rain 24hr in | rain mn in | humidity % | barometer mb |
| 20260902120012 | 53 | 191 | 0.0 | 2.0 | 0.00 | 0.00 | 0.00 | 81 | 979.4 |
| 20260902114512 | 53 | 193 | 0.0 | 1.0 | 0.00 | 0.00 | 0.00 | 85 | 979.6 |
| 20260902113008 | 53 | 187 | 0.0 | 1.0 | 0.00 | 0.00 | 0.00 | 82 | 979.8 |
| 20260902111521 | 54 | 121 | 0.0 | 6.0 | 0.00 | 0.00 | 0.00 | 81 | 979.7 |
| 20260902110019 | 54 | 90 | 1.0 | 5.0 | 0.00 | 0.00 | 0.00 | 82 | 979.6 |
| 20260902104506 | 54 | 117 | 0.0 | 4.0 | 0.00 | 0.00 | 0.00 | 82 | 979.5 |
| 20260902103007 | 54 | 117 | 0.0 | 4.0 | 0.00 | 0.00 | 0.00 | 81 | 979.5 |
| 20260902101506 | 55 | 119 | 1.0 | 4.0 | 0.00 | 0.00 | 0.00 | 81 | 979.3 |
| 20260902100005 | 55 | 133 | 0.0 | 2.0 | 0.00 | 0.00 | 0.00 | 81 | 979.3 |
| 20260902094503 | 55 | 126 | 0.0 | 1.0 | 0.00 | 0.00 | 0.00 | 81 | 979.2 |
| 20260902093003 | 55 | 127 | 0.0 | 3.0 | 0.00 | 0.00 | 0.00 | 80 | 979.2 |
| 20260902091503 | 55 | 113 | 2.0 | 6.0 | 0.00 | 0.00 | 0.00 | 79 | 979.0 |
| 20260902090005 | 55 | 127 | 2.0 | 5.0 | 0.00 | 0.00 | 0.00 | 78 | 978.9 |
| 20260902084501 | 56 | 122 | 2.0 | 6.0 | 0.00 | 0.00 | 0.00 | 76 | 979.0 |
| 20260902083003 | 56 | 113 | 2.0 | 7.0 | 0.00 | 0.00 | 0.00 | 77 | 978.9 |
| 20260902081500 | 56 | 119 | 2.0 | 5.0 | 0.00 | 0.00 | 0.00 | 76 | 979.0 |
| 20260902080114 | 56 | 127 | 2.0 | 5.0 | 0.00 | 0.00 | 0.00 | 74 | 978.9 |
| 20260902074600 | 56 | 124 | 1.0 | 7.0 | 0.00 | 0.00 | 0.00 | 73 | 978.8 |
| 20260902073059 | 57 | 285 | 2.0 | 7.0 | 0.00 | 0.00 | 0.00 | 72 | 978.9 |
| 20260902071559 | 58 | 122 | 3.0 | 7.0 | 0.00 | 0.00 | 0.00 | 72 | 978.8 |
| 20260902070058 | 58 | 148 | 1.0 | 6.0 | 0.00 | 0.00 | 0.00 | 72 | 979.0 |
| 20260902064556 | 60 | 294 | 1.0 | 7.0 | 0.00 | 0.00 | 0.00 | 71 | 978.9 |
| 20260902063058 | 60 | 109 | 2.0 | 9.0 | 0.00 | 0.00 | 0.00 | 70 | 979.0 |
| 20260902061611 | 60 | 85 | 1.0 | 7.0 | 0.00 | 0.00 | 0.00 | 69 | 978.9 |
| 20260902060053 | 60 | 325 | 2.0 | 8.0 | 0.00 | 0.00 | 0.00 | 67 | 979.1 |
| 20260902054552 | 62 | 221 | 1.0 | 7.0 | 0.00 | 0.00 | 0.00 | 67 | 979.0 |
| 20260902053051 | 61 | 141 | 3.0 | 9.0 | 0.00 | 0.00 | 0.00 | 68 | 979.1 |
| 20260902051550 | 62 | 75 | 2.0 | 10.0 | 0.00 | 0.00 | 0.00 | 68 | 979.2 |
| 20260902050048 | 62 | 18 | 4.0 | 14.0 | 0.00 | 0.00 | 0.00 | 67 | 979.1 |
| 20260902044548 | 62 | 114 | 1.0 | 7.0 | 0.00 | 0.00 | 0.00 | 71 | 979.2 |
| 20260902043049 | 61 | 123 | 1.0 | 10.0 | 0.00 | 0.00 | 0.00 | 72 | 979.2 |
| 20260902041547 | 63 | 180 | 2.0 | 9.0 | 0.00 | 0.00 | 0.00 | 70 | 979.1 |
| 20260902040046 | 63 | 188 | 3.0 | 10.0 | 0.00 | 0.00 | 0.00 | 70 | 979.3 |
| 20260902034538 | 63 | 88 | 2.0 | 10.0 | 0.00 | 0.00 | 0.00 | 66 | 979.4 |
| 20260902033037 | 62 | 47 | 2.0 | 9.0 | 0.00 | 0.00 | 0.00 | 69 | 979.4 |
| 20260902031531 | 63 | 117 | 4.0 | 9.0 | 0.00 | 0.00 | 0.00 | 71 | 979.6 |
| 20260902030029 | 62 | 139 | 1.0 | 11.0 | 0.00 | 0.00 | 0.00 | 72 | 979.8 |
| 20260902024527 | 62 | 321 | 3.0 | 10.0 | 0.00 | 0.00 | 0.00 | 74 | 980.2 |
| 20260902023026 | 61 | 131 | 1.0 | 14.0 | 0.00 | 0.00 | 0.00 | 76 | 980.4 |
| 20260902021524 | 61 | 89 | 3.0 | 9.0 | 0.00 | 0.00 | 0.00 | 73 | 980.5 |
| 20260902020023 | 60 | 94 | 4.0 | 13.0 | 0.00 | 0.00 | 0.00 | 77 | 980.6 |
| 20260902014530 | 61 | 270 | 2.0 | 10.0 | 0.00 | 0.00 | 0.00 | 77 | 980.7 |
| 20260902013016 | 59 | 340 | 0.0 | 3.0 | 0.00 | 0.00 | 0.00 | 82 | 980.9 |
| 20260902011514 | 58 | 229 | 0.0 | 5.0 | 0.00 | 0.00 | 0.00 | 82 | 981.1 |
| 20260902010013 | 58 | 236 | 1.0 | 3.0 | 0.00 | 0.00 | 0.00 | 84 | 981.2 |
| 20260902004513 | 57 | 296 | 0.0 | 1.0 | 0.00 | 0.00 | 0.00 | 83 | 981.4 |
| 20260902003012 | 57 | 313 | 0.0 | 2.0 | 0.00 | 0.00 | 0.00 | 83 | 981.5 |
| 20260902001511 | 56 | 310 | 0.0 | 1.0 | 0.00 | 0.00 | 0.00 | 85 | 981.6 |
| 20260902000017 | 56 | 306 | 0.0 | 4.0 | 0.00 | 0.00 | 0.00 | 85 | 981.7 |
| 20260901234508 | 56 | 312 | 1.0 | 3.0 | 0.00 | 0.00 | 0.00 | 86 | 981.8 |
| 20260901233011 | 56 | 304 | 2.0 | 6.0 | 0.00 | 0.00 | 0.00 | 87 | 981.8 |
| 20260901231506 | 55 | 297 | 1.0 | 4.0 | 0.00 | 0.00 | 0.00 | 88 | 981.8 |
| 20260901230015 | 55 | 303 | 0.0 | 2.0 | 0.00 | 0.00 | 0.00 | 88 | 981.6 |
| 20260901224506 | 54 | 259 | 0.0 | 3.0 | 0.00 | 0.00 | 0.00 | 89 | 981.5 |
| 20260901223005 | 55 | 240 | 0.0 | 6.0 | 0.00 | 0.00 | 0.00 | 89 | 981.5 |
| 20260901221505 | 54 | 257 | 1.0 | 6.0 | 0.00 | 0.00 | 0.00 | 90 | 981.7 |
| 20260901220127 | 54 | 269 | 0.0 | 4.0 | 0.00 | 0.00 | 0.00 | 90 | 981.4 |
| 20260901214558 | 55 | 203 | 0.0 | 0.0 | 0.00 | 0.00 | 0.00 | 89 | 981.3 |
| 20260901213112 | 55 | 207 | 0.0 | 3.0 | 0.00 | 0.00 | 0.00 | 88 | 981.1 |
| 20260901211555 | 55 | 108 | 1.0 | 3.0 | 0.00 | 0.00 | 0.00 | 88 | 980.9 |
| 20260901210054 | 54 | 115 | 1.0 | 2.0 | 0.00 | 0.00 | 0.00 | 89 | 980.7 |
| 20260901204553 | 54 | 111 | 1.0 | 2.0 | 0.00 | 0.00 | 0.00 | 89 | 980.7 |
| 20260901203100 | 55 | 120 | 0.0 | 1.0 | 0.00 | 0.00 | 0.00 | 87 | 980.6 |
| 20260901201550 | 56 | 115 | 0.0 | 3.0 | 0.00 | 0.00 | 0.00 | 85 | 980.4 |
| 20260901200054 | 55 | 98 | 0.0 | 0.0 | 0.00 | 0.00 | 0.00 | 85 | 980.3 |
| 20260901194548 | 56 | 88 | 0.0 | 2.0 | 0.00 | 0.00 | 0.00 | 84 | 980.2 |
| 20260901193059 | 56 | 255 | 0.0 | 3.0 | 0.00 | 0.00 | 0.00 | 84 | 980.3 |
| 20260901191547 | 56 | 150 | 0.0 | 0.0 | 0.00 | 0.00 | 0.00 | 85 | 980.3 |
| 20260901190047 | 55 | 120 | 0.0 | 1.0 | 0.00 | 0.00 | 0.00 | 87 | 980.1 |
| 20260901184545 | 56 | 120 | 0.0 | 1.0 | 0.00 | 0.00 | 0.00 | 85 | 980.1 |
| 20260901183048 | 55 | 138 | 0.0 | 0.0 | 0.00 | 0.00 | 0.00 | 86 | 980.1 |
| 20260901181644 | 55 | 139 | 0.0 | 0.0 | 0.00 | 0.00 | 0.00 | 86 | 980.1 |
| 20260901180043 | 56 | 139 | 0.0 | 0.0 | 0.00 | 0.00 | 0.00 | 84 | 980.0 |
| 20260901174542 | 56 | 117 | 0.0 | 2.0 | 0.00 | 0.00 | 0.00 | 83 | 979.8 |
| 20260901173042 | 57 | 191 | 0.0 | 2.0 | 0.00 | 0.00 | 0.00 | 81 | 979.7 |
| 20260901171543 | 58 | 110 | 0.0 | 10.0 | 0.00 | 0.00 | 0.00 | 78 | 979.7 |
| 20260901170040 | 59 | 110 | 7.0 | 13.0 | 0.00 | 0.00 | 0.00 | 77 | 979.7 |
| 20260901164538 | 59 | 119 | 7.0 | 13.0 | 0.00 | 0.00 | 0.00 | 77 | 979.9 |
| 20260901163036 | 58 | 124 | 2.0 | 7.0 | 0.00 | 0.00 | 0.00 | 77 | 980.1 |
| 20260901161537 | 57 | 108 | 0.0 | 4.0 | 0.00 | 0.00 | 0.00 | 80 | 980.4 |
| 20260901160035 | 57 | 104 | 0.0 | 5.0 | 0.00 | 0.00 | 0.00 | 81 | 980.5 |
| 20260901154530 | 56 | 122 | 0.0 | 1.0 | 0.00 | 0.00 | 0.00 | 85 | 980.5 |
| 20260901153028 | 56 | 120 | 0.0 | 0.0 | 0.00 | 0.00 | 0.00 | 84 | 980.6 |
| 20260901151526 | 56 | 121 | 0.0 | 1.0 | 0.00 | 0.00 | 0.00 | 83 | 980.5 |
| 20260901150025 | 57 | 110 | 0.0 | 3.0 | 0.00 | 0.00 | 0.00 | 81 | 980.6 |
| 20260901144523 | 57 | 101 | 0.0 | 3.0 | 0.00 | 0.00 | 0.00 | 83 | 980.6 |
| 20260901143023 | 56 | 109 | 0.0 | 0.0 | 0.00 | 0.00 | 0.00 | 84 | 980.7 |
| 20260901141521 | 57 | 120 | 0.0 | 1.0 | 0.00 | 0.00 | 0.00 | 81 | 980.7 |
| 20260901140016 | 58 | 120 | 2.0 | 5.0 | 0.00 | 0.00 | 0.00 | 79 | 980.7 |
| 20260901134515 | 58 | 115 | 1.0 | 3.0 | 0.00 | 0.00 | 0.00 | 80 | 980.9 |
| 20260901133014 | 57 | 121 | 0.0 | 2.0 | 0.00 | 0.00 | 0.00 | 81 | 981.1 |
| 20260901131521 | 57 | 96 | 0.0 | 3.0 | 0.00 | 0.00 | 0.00 | 80 | 981.2 |
| 20260901130012 | 58 | 117 | 3.0 | 5.0 | 0.00 | 0.00 | 0.00 | 78 | 981.2 |
| 20260901124512 | 58 | 96 | 3.0 | 6.0 | 0.00 | 0.00 | 0.00 | 77 | 981.5 |
| 20260901123018 | 59 | 44 | 1.0 | 4.0 | 0.00 | 0.00 | 0.00 | 75 | 981.7 |
| 20260901121510 | 59 | 73 | 1.0 | 3.0 | 0.00 | 0.00 | 0.00 | 74 | 982.0 |